Weather History for KCRE - February, 2013

Change the Weather History Date:

Friday, February 1, 2013

  Actual Average Record
Temperature  
Mean Temperature 43 °F 46 °F  
Max Temperature 55 °F 55 °F 76 °F (1950)
Min Temperature 30 °F 37 °F 21 °F (1952)
Degree Days  
Heating Degree Days 22 19  
Month to date heating degree days 22 19  
Since 1 July heating degree days 1311 1487  
Cooling Degree Days 0 0  
Month to date cooling degree days 0 0  
Year to date cooling degree days 2 0  
Moisture  
Dew Point 18 °F    
Average Humidity 32    
Maximum Humidity 49    
Minimum Humidity 14    
Precipitation  
Precipitation 0.00 in 0.11 in 1.14 in (2007)
Month to date precipitation 0.00 0.11  
Year to date precipitation 0.64 3.80  
Sea Level Pressure  
Sea Level Pressure 30.21 in    
Wind  
Wind Speed 9 mph (WNW)    
Max Wind Speed 24 mph    
Max Gust Speed 36 mph    
Visibility 10 miles    
Events      
T = Trace of Precipitation, MM = Missing Value Source: NWS Daily Summary

Daily Weather History Graph

Daily Weather History Graph

Search for Another Location

Airport or City:

Trip Planner

Search our weather history database for the weather conditions in past years. The results will help you decide how hot, cold, wet, or windy it might be!

Date:

Astronomy

Feb. 01, 2013 Rise Set
Actual Time 7:11 AM EST 5:46 PM EST
Civil Twilight 6:45 AM EST 6:12 PM EST
Nautical Twilight 6:15 AM EST 6:42 PM EST
Astronomical Twilight 5:46 AM EST 7:11 PM EST
Moon 11:30 PM EST (2/1) 10:02 AM EST (2/1)
Length of Visible Light 11h 27m
Length of Day
10h 34m
Waning Gibbous, 70% of the Moon is Illuminated
Feb 1
Waning Gibbous
Feb 3
Last Quarter
Feb 10
New
Feb 17
First Quarter
Feb 25
Full

Hourly Weather History & Observations

Time (EST) Temp. Windchill Dew Point Humidity Pressure Visibility Wind Dir Wind Speed Gust Speed Precip Events Conditions
12:53 AM 44.1 °F 39.5 °F 24.1 °F 45% 30.14 in 10.0 mi West 8.1 mph - N/A   Clear
1:53 AM 44.1 °F 40.1 °F 24.1 °F 45% 30.12 in 10.0 mi West 6.9 mph - N/A   Clear
2:53 AM 43.0 °F 38.8 °F 25.0 °F 49% 30.11 in 10.0 mi West 6.9 mph - N/A   Clear
3:53 AM 42.1 °F 37.1 °F 25.0 °F 51% 30.12 in 10.0 mi West 8.1 mph - N/A   Clear
4:53 AM 42.1 °F 37.7 °F 25.0 °F 51% 30.10 in 10.0 mi WSW 6.9 mph - N/A   Clear
5:53 AM 43.0 °F 36.4 °F 25.0 °F 49% 30.09 in 10.0 mi WSW 12.7 mph 24.2 mph N/A   Clear
6:53 AM 45.0 °F 39.3 °F 25.0 °F 46% 30.09 in 10.0 mi WSW 11.5 mph 19.6 mph N/A   Clear
7:53 AM 46.9 °F - 26.1 °F 44% 30.11 in 10.0 mi WSW 15.0 mph 21.9 mph N/A   Clear
9:53 AM 52.0 °F - 28.0 °F 40% 30.12 in 10.0 mi West 10.4 mph 23.0 mph N/A   Clear
10:53 AM 54.0 °F - 26.1 °F 34% 30.14 in 10.0 mi West 20.7 mph 35.7 mph N/A   Clear
11:53 AM 54.0 °F - 28.0 °F 37% 30.15 in 10.0 mi WNW 9.2 mph 29.9 mph N/A   Clear
12:53 PM 52.0 °F - 26.1 °F 37% 30.17 in 10.0 mi NNW 13.8 mph 31.1 mph N/A   Scattered Clouds
1:53 PM 52.0 °F - 21.0 °F 30% 30.18 in 10.0 mi NNW 10.4 mph 27.6 mph N/A   Clear
3:53 PM 48.9 °F - 1.9 °F 15% 30.23 in 10.0 mi NNW 10.4 mph 23.0 mph N/A   Clear
4:53 PM 48.0 °F - 3.0 °F 16% 30.26 in 10.0 mi Variable 5.8 mph - N/A   Clear
5:53 PM 43.0 °F 40.3 °F 1.0 °F 17% 30.29 in 10.0 mi NNW 4.6 mph - N/A   Clear
6:53 PM 37.9 °F 35.5 °F 9.0 °F 30% 30.32 in 10.0 mi North 3.5 mph - N/A   Clear
7:53 PM 36.0 °F 33.3 °F 10.0 °F 34% 30.33 in 10.0 mi North 3.5 mph - N/A   Clear
8:53 PM 33.1 °F 28.7 °F 10.9 °F 40% 30.35 in 10.0 mi NNE 4.6 mph - N/A   Clear
9:53 PM 34.0 °F 27.2 °F 9.0 °F 35% 30.36 in 10.0 mi NNE 8.1 mph - N/A   Clear
10:53 PM 33.1 °F 26.9 °F 10.0 °F 38% 30.37 in 10.0 mi NNE 6.9 mph - N/A   Clear
11:53 PM 30.0 °F - 15.1 °F 54% 30.38 in 10.0 mi Calm Calm - N/A   Clear